Temp
36 36 35 35 34 34 34 34 34 34 34 34 34 35 35 36 37 36 36 36 35 35 36 36 36 36 36 36 36 36 36 36 36 37 36 35 34 34 36 36 36 37
34 35 35 34 34 34 34 33 33 33 33 33 33 33 34 35 35 36 36 36 36 36 35 34 34 34 34 34 34 34 34 34 35 37 35 35 35 34 34 34 35 36
33 33 32 32 32 31 31 31 31 31 32 32 31 32 33 32 32 33 33 34 35 36 36 35 35 34 33 32 32 33 33 33 34 34 33 34 34 34 35 34 34 34
32 32 32 31 31 31 31 32 31 31 31 32 30 31 31 31 29 30 30 31 31 32 33 34 35 35 34 33 32 32 32 32 32 33 33 34 34 34 34 34 34 34
30 31 30 31 30 31 32 32 32 32 32 32 32 32 32 31 31 29 29 30 29 30 31 31 31 32 33 34 33 32 32 32 32 32 32 32 34 33 34 34 34 34
28 28 28 28 28 28 31 28 29 31 32 31 30 31 31 31 31 31 31 31 31 30 29 29 30 30 30 30 31 32 32 32 32 31 31 31 32 33 34 34 33 33
29 28 28 27 29 27 28 28 27 28 28 28 28 30 29 30 30 30 30 30 31 32 31 31 30 30 28 28 29 30 31 31 32 32 31 31 31 31 32 32 32 32
29 28 27 26 27 27 27 28 28 28 27 27 28 29 27 28 28 28 28 29 29 30 30 30 31 32 31 30 29 28 28 31 31 30 30 30 30 31 32 32 31 31
27 27 26 26 27 27 26 27 27 27 26 27 28 28 27 27 27 27 28 28 28 29 29 29 30 30 30 31 31 30 30 30 30 28 29 29 29 30 31 31 31 31
27 26 27 27 28 27 27 27 26 27 26 26 27 27 27 28 26 27 27 26 27 27 28 28 29 29 30 30 30 29 30 30 31 31 31 29 29 29 30 30 30 31
28 25 27 26 26 26 26 26 26 26 26 26 27 27 26 27 27 25 26 26 27 27 27 27 28 28 28 29 29 29 29 30 30 31 31 31 31 31 31 30 30 30
26 25 25 25 25 25 26 26 27 26 26 26 25 26 26 26 26 27 26 26 26 26 27 27 28 28 28 28 28 28 29 29 29 30 30 31 31 31 31 31 30 31
27 27 27 27 27 26 26 26 26 26 25 26 26 25 25 26 26 26 27 27 27 27 27 27 27 27 27 28 28 28 28 28 28 29 29 30 30 31 31 32 32 31
27 26 26 27 27 27 27 26 27 26 26 26 25 25 25 25 26 27 27 27 27 27 27 27 27 27 27 27 27 27 27 27 28 28 28 29 29 30 31 31 32 32
26 26 26 26 26 27 27 27 27 27 27 26 26 26 27 26 27 26 26 26 26 26 26 27 27 27 28 27 27 27 28 27 28 28 28 28 29 29 30 31 31 32
26 26 26 26 26 26 26 25 25 25 25 25 25 25 25 26 25 26 25 25 25 25 26 26 27 27 29 31 31 29 28 28 28 27 27 28 28 28 29 30 30 31
25 25 25 25 24 24 23 23 23 23 22 22 22 23 23 23 24 23 24 24 24 24 24 25 25 26 29 31 31 32 29 27 26 26 26 26 26 27 27 28 29 30
24 24 23 22 21 20 20 19 20 19 19 19 19 20 21 21 21 21 22 22 22 22 22 22 23 26 28 29 30 30 30 27 26 25 25 26 26 26 26 27 27 28
22 20 19 18 18 17 17 17 17 17 17 17 17 18 18 18 19 19 19 20 20 19 19 20 20 24 26 27 27 28 28 28 25 25 24 24 24 24 25 25 26 26
18 16 16 15 16 15 15 15 15 14 15 15 16 16 15 15 15 15 16 16 16 16 16 17 17 20 24 25 25 26 26 26 23 23 23 23 23 23 24 24 24 24
16 14 13 14 13 13 12 12 12 12 12 13 13 13 12 12 12 11 12 12 12 13 13 13 14 20 21 22 23 23 24 24 20 20 20 21 22 23 23 23 24 24
12 11 11 10 11 10 9 10 10 9 9 10 10 10 10 10 10 10 10 10 10 10 10 9 11 17 19 20 21 22 23 18 17 16 16 16 16 18 20 21 23 24
11 10 9 8 8 7 6 6 7 7 7 8 7 7 7 7 7 8 8 8 8 8 7 8 8 13 17 19 19 21 19 15 15 15 15 15 15 17 18 18 19 20
9 6 6 6 5 4 5 6 6 6 6 7 6 5 5 6 6 6 7 7 6 6 6 6 7 11 16 17 18 19 18 15 14 13 13 14 14 16 18 18 19 22
6 5 5 4 3 4 4 3 4 4 5 5 5 5 4 5 5 4 4 5 5 5 9 8 6 9 14 16 17 18 17 14 14 13 13 13 14 14 16 17 17 19
4 3 3 3 3 3 3 3 4 3 3 4 4 4 3 3 3 3 2 3 4 4 5 6 5 6 9 15 17 18 19 15 14 13 12 12 13 13 13 14 16 17
MSLP
1025.57 1025.77 1025.93 1026.01 1026.17 1026.17 1026.13 1026.01 1025.97 1025.81 1025.69 1025.57 1025.45 1025.33 1025.21 1025.05 1024.77 1024.57 1024.45 1024.29 1024.17 1024.01 1023.85 1023.69 1023.53 1023.33 1023.13 1022.97 1022.77 1022.57 1022.37 1022.29 1022.17 1022.09 1022.05 1022.09 1022.01 1022.01 1021.93 1021.73 1021.61 1021.53
1025.77 1025.97 1026.09 1026.21 1026.25 1026.29 1026.25 1026.25 1026.21 1026.09 1025.97 1025.85 1025.73 1025.53 1025.33 1025.13 1024.93 1024.77 1024.61 1024.45 1024.25 1024.13 1024.01 1023.85 1023.73 1023.65 1023.45 1023.21 1022.97 1022.77 1022.53 1022.37 1022.13 1022.05 1022.05 1021.93 1021.89 1021.89 1021.85 1021.73 1021.65 1021.57
1026.01 1026.17 1026.33 1026.45 1026.61 1026.61 1026.57 1026.53 1026.45 1026.33 1026.21 1026.13 1025.97 1025.73 1025.49 1025.37 1025.17 1025.05 1024.93 1024.81 1024.61 1024.37 1024.13 1023.97 1023.81 1023.69 1023.57 1023.45 1023.29 1023.05 1022.77 1022.45 1022.21 1022.13 1022.09 1021.93 1021.85 1021.77 1021.65 1021.61 1021.53 1021.45
1026.09 1026.29 1026.33 1026.45 1026.57 1026.49 1026.53 1026.41 1026.29 1026.25 1026.21 1026.09 1025.97 1025.81 1025.61 1025.45 1025.29 1025.17 1025.05 1024.97 1024.85 1024.65 1024.45 1024.21 1024.01 1023.81 1023.65 1023.49 1023.33 1023.17 1023.01 1022.77 1022.57 1022.37 1022.17 1021.93 1021.77 1021.69 1021.53 1021.45 1021.37 1021.29
1026.09 1026.13 1026.29 1026.33 1026.41 1026.41 1026.33 1026.17 1026.09 1026.05 1026.01 1026.05 1025.85 1025.61 1025.45 1025.29 1025.17 1025.13 1025.09 1025.05 1024.97 1024.77 1024.57 1024.37 1024.21 1024.01 1023.77 1023.53 1023.37 1023.17 1022.97 1022.85 1022.57 1022.45 1022.29 1022.05 1021.77 1021.69 1021.45 1021.37 1021.21 1021.09
1026.41 1026.49 1026.53 1026.57 1026.61 1026.61 1026.49 1026.45 1026.41 1026.29 1026.17 1025.97 1025.93 1025.81 1025.61 1025.41 1025.25 1025.05 1024.89 1024.81 1024.73 1024.73 1024.61 1024.49 1024.29 1024.09 1023.93 1023.73 1023.53 1023.29 1023.09 1022.81 1022.49 1022.41 1022.25 1022.09 1021.81 1021.61 1021.53 1021.33 1021.17 1021.01
1026.49 1026.61 1026.65 1026.77 1026.69 1026.77 1026.61 1026.53 1026.45 1026.37 1026.29 1026.29 1026.21 1025.97 1025.93 1025.69 1025.57 1025.49 1025.33 1025.17 1024.93 1024.61 1024.45 1024.25 1024.09 1023.97 1023.89 1023.77 1023.61 1023.45 1023.21 1023.01 1022.61 1022.37 1022.17 1021.97 1021.81 1021.53 1021.37 1021.25 1021.05 1020.85
1026.65 1026.77 1026.77 1026.81 1026.77 1026.73 1026.65 1026.65 1026.57 1026.45 1026.45 1026.37 1026.29 1026.21 1026.13 1026.01 1025.85 1025.81 1025.65 1025.53 1025.33 1025.01 1024.73 1024.45 1024.09 1023.77 1023.53 1023.49 1023.45 1023.33 1023.17 1022.97 1022.73 1022.49 1022.29 1021.97 1021.73 1021.41 1021.05 1020.97 1020.89 1020.77
1026.77 1026.73 1026.85 1026.85 1026.81 1026.81 1026.81 1026.73 1026.69 1026.57 1026.49 1026.41 1026.29 1026.17 1026.09 1026.05 1025.93 1025.81 1025.69 1025.53 1025.33 1025.09 1024.85 1024.61 1024.33 1024.13 1023.81 1023.61 1023.33 1023.09 1022.81 1022.49 1022.45 1022.41 1022.25 1021.97 1021.69 1021.37 1021.05 1020.81 1020.57 1020.37
1026.61 1026.77 1026.77 1026.77 1026.77 1026.77 1026.77 1026.69 1026.65 1026.57 1026.53 1026.45 1026.29 1026.25 1026.05 1025.89 1025.89 1025.73 1025.61 1025.49 1025.29 1025.05 1024.89 1024.61 1024.37 1024.17 1023.93 1023.73 1023.53 1023.29 1023.01 1022.65 1022.21 1021.93 1021.77 1021.61 1021.45 1021.17 1020.89 1020.73 1020.49 1020.13
1026.65 1026.69 1026.73 1026.69 1026.69 1026.69 1026.65 1026.61 1026.57 1026.49 1026.45 1026.37 1026.21 1026.13 1026.01 1025.89 1025.73 1025.65 1025.49 1025.29 1025.13 1024.89 1024.69 1024.53 1024.33 1024.09 1023.89 1023.61 1023.41 1023.29 1023.09 1022.77 1022.41 1022.05 1021.73 1021.33 1021.05 1020.81 1020.61 1020.49 1020.29 1020.05
1026.61 1026.69 1026.69 1026.69 1026.69 1026.65 1026.65 1026.57 1026.53 1026.41 1026.33 1026.25 1026.17 1025.97 1025.85 1025.81 1025.61 1025.45 1025.37 1025.09 1024.93 1024.81 1024.57 1024.37 1024.13 1023.93 1023.73 1023.49 1023.29 1023.17 1023.01 1022.77 1022.49 1022.21 1021.85 1021.45 1021.01 1020.61 1020.37 1020.17 1020.01 1019.69
1026.57 1026.61 1026.69 1026.69 1026.69 1026.65 1026.65 1026.57 1026.45 1026.37 1026.25 1026.13 1025.97 1025.89 1025.73 1025.57 1025.41 1025.25 1025.09 1024.97 1024.69 1024.53 1024.33 1024.13 1023.89 1023.69 1023.53 1023.33 1023.21 1023.09 1022.93 1022.69 1022.37 1022.09 1021.81 1021.53 1021.09 1020.73 1020.37 1020.05 1019.73 1019.45
1026.53 1026.61 1026.57 1026.53 1026.53 1026.49 1026.41 1026.37 1026.29 1026.21 1026.13 1026.05 1025.93 1025.77 1025.65 1025.45 1025.25 1025.05 1024.77 1024.69 1024.53 1024.29 1024.05 1023.93 1023.69 1023.41 1023.25 1023.17 1023.09 1022.97 1022.73 1022.45 1022.17 1021.81 1021.41 1021.05 1020.65 1020.29 1020.01 1019.69 1019.37 1019.01
1026.61 1026.61 1026.61 1026.61 1026.53 1026.41 1026.33 1026.25 1026.21 1026.13 1026.01 1025.89 1025.81 1025.65 1025.45 1025.33 1025.13 1024.93 1024.69 1024.37 1024.17 1024.09 1023.85 1023.65 1023.49 1023.21 1023.01 1023.01 1022.89 1022.61 1022.45 1022.17 1021.81 1021.49 1021.17 1020.73 1020.33 1019.89 1019.49 1019.17 1018.77 1018.41
1026.65 1026.65 1026.65 1026.65 1026.53 1026.49 1026.49 1026.45 1026.41 1026.25 1026.09 1025.89 1025.65 1025.53 1025.37 1025.13 1024.93 1024.69 1024.61 1024.41 1024.09 1023.77 1023.61 1023.45 1023.21 1022.93 1022.77 1022.77 1022.61 1022.37 1022.01 1021.69 1021.41 1021.13 1020.85 1020.45 1020.05 1019.53 1019.05 1018.73 1018.37 1018.05
1026.77 1026.85 1026.85 1026.81 1026.81 1026.77 1026.73 1026.69 1026.57 1026.49 1026.37 1026.17 1025.89 1025.65 1025.45 1025.13 1024.93 1024.69 1024.41 1024.29 1024.17 1023.89 1023.53 1023.21 1023.01 1022.73 1022.65 1022.57 1022.29 1022.05 1021.85 1021.53 1021.17 1020.73 1020.41 1020.01 1019.65 1019.17 1018.61 1018.13 1017.73 1017.53
1026.97 1026.97 1027.01 1027.09 1027.13 1027.17 1027.13 1027.09 1026.93 1026.81 1026.65 1026.45 1026.17 1025.89 1025.61 1025.37 1025.21 1024.89 1024.57 1024.41 1024.25 1024.01 1023.77 1023.37 1022.97 1022.73 1022.73 1022.53 1022.17 1021.93 1021.73 1021.41 1020.93 1020.41 1019.93 1019.53 1019.13 1018.73 1018.29 1017.81 1017.33 1016.97
1027.29 1027.33 1027.49 1027.49 1027.53 1027.53 1027.37 1027.29 1027.21 1027.05 1026.89 1026.69 1026.41 1026.13 1025.93 1025.57 1025.25 1025.05 1024.77 1024.65 1024.65 1024.37 1023.93 1023.45 1023.17 1023.01 1023.01 1022.65 1022.21 1021.85 1021.53 1021.25 1020.77 1020.25 1019.69 1019.21 1018.81 1018.45 1018.05 1017.65 1017.21 1016.77
1027.77 1027.89 1027.89 1027.93 1027.85 1027.77 1027.69 1027.57 1027.49 1027.33 1027.17 1027.01 1026.69 1026.29 1026.13 1025.81 1025.49 1025.33 1025.09 1025.05 1024.97 1024.73 1024.29 1023.73 1023.49 1023.45 1023.21 1022.73 1022.25 1021.89 1021.53 1021.13 1020.61 1019.97 1019.33 1018.81 1018.37 1018.01 1017.69 1017.41 1017.05 1016.73
1028.25 1028.29 1028.29 1028.21 1028.17 1028.13 1028.01 1027.93 1027.85 1027.65 1027.45 1027.25 1026.97 1026.69 1026.45 1026.13 1025.81 1025.57 1025.29 1025.33 1025.21 1024.97 1024.61 1023.93 1023.65 1023.73 1023.37 1022.81 1022.37 1021.97 1021.49 1021.01 1020.53 1020.01 1019.41 1018.73 1018.13 1017.69 1017.33 1016.93 1016.61 1016.29
1028.65 1028.61 1028.61 1028.57 1028.49 1028.41 1028.41 1028.25 1028.13 1028.01 1027.77 1027.37 1027.13 1026.81 1026.61 1026.41 1026.01 1025.89 1025.69 1025.41 1025.21 1025.09 1024.77 1024.05 1023.69 1023.89 1023.49 1022.85 1022.37 1021.85 1021.41 1021.05 1020.73 1020.33 1019.77 1019.13 1018.45 1017.97 1017.53 1016.93 1016.33 1015.81
1028.93 1028.89 1028.85 1028.81 1028.73 1028.69 1028.61 1028.53 1028.29 1027.97 1027.81 1027.69 1027.33 1026.89 1026.69 1026.37 1026.17 1025.93 1025.81 1025.61 1025.17 1025.01 1024.81 1024.05 1023.61 1023.73 1023.33 1022.65 1022.17 1021.69 1021.33 1021.01 1020.57 1019.97 1019.33 1018.77 1018.13 1017.73 1017.37 1016.93 1016.53 1016.17
1029.09 1029.05 1029.01 1028.97 1028.93 1028.89 1028.69 1028.45 1028.25 1028.01 1027.85 1027.65 1027.49 1026.93 1026.53 1026.33 1026.13 1025.77 1025.61 1025.61 1025.25 1024.77 1024.73 1024.17 1023.33 1023.25 1023.01 1022.41 1021.93 1021.45 1021.05 1020.53 1020.09 1019.61 1018.93 1018.49 1017.81 1017.33 1017.05 1016.53 1016.13 1015.85
1029.05 1029.09 1029.09 1029.01 1029.01 1028.85 1028.69 1028.41 1028.17 1027.89 1027.61 1027.49 1027.29 1027.01 1026.53 1026.25 1026.01 1025.77 1025.33 1025.21 1025.09 1024.61 1024.21 1023.93 1023.29 1022.97 1022.81 1022.25 1021.61 1021.05 1020.57 1020.09 1019.57 1019.01 1018.45 1017.97 1017.53 1016.85 1016.69 1016.49 1015.93 1015.73
1029.09 1029.09 1029.09 1029.05 1028.89 1028.65 1028.49 1028.29 1027.97 1027.69 1027.41 1027.25 1026.97 1026.89 1026.45 1026.09 1025.93 1025.65 1025.21 1024.81 1024.69 1024.33 1023.93 1023.65 1023.21 1022.65 1022.53 1021.77 1021.13 1020.49 1020.01 1019.53 1019.05 1018.61 1017.97 1017.49 1017.09 1016.65 1016.01 1015.73 1015.61 1015.13
Wind_Speed
9 7 8 7 6 6 6 7 6 7 7 6 7 6 7 6 8 8 8 8 8 8 8 8 8 8 7 6 5 6 5 4 4 4 5 5 5 5 6 7 6 6
8 8 7 7 7 6 6 6 6 6 6 6 5 5 6 7 8 8 9 9 9 9 8 8 7 7 7 7 7 7 6 5 6 4 5 5 5 4 5 6 6 7
6 6 6 5 5 4 3 2 3 3 4 4 4 4 5 4 5 5 6 6 7 8 9 8 9 8 8 7 6 7 7 7 7 6 5 6 5 5 6 5 5 6
6 5 5 4 4 4 3 3 4 3 2 4 4 3 2 3 4 5 6 6 6 6 6 6 7 7 8 8 7 7 6 6 5 6 6 6 6 5 7 5 5 6
6 6 5 5 5 5 5 6 7 7 7 6 6 7 7 7 6 5 4 5 5 6 7 7 6 6 6 7 7 7 7 7 7 5 6 7 7 5 6 6 7 7
4 4 4 4 4 4 5 4 4 5 6 7 7 7 7 8 9 9 10 10 7 5 5 5 6 6 6 6 6 6 6 7 8 6 6 7 8 7 5 6 7 8
3 3 4 3 4 3 4 4 4 4 4 4 4 6 5 7 8 8 9 9 11 11 10 10 7 6 4 4 5 7 7 6 7 7 7 7 6 8 6 6 7 8
2 1 2 3 4 4 4 4 4 4 4 4 5 5 4 5 5 5 5 7 7 9 10 10 11 12 11 8 7 5 6 5 6 7 7 8 6 8 8 6 5 7
0 1 1 1 2 3 3 4 4 4 4 4 5 6 4 4 5 5 6 6 7 7 8 8 9 9 9 10 11 12 12 10 6 5 7 8 8 8 8 8 8 8
0 0 1 1 2 2 3 4 4 4 4 4 5 4 6 6 4 5 5 6 6 7 7 8 9 9 9 9 10 10 11 12 13 12 10 8 8 9 8 8 9 10
1 1 1 2 3 3 4 4 4 4 4 4 5 5 5 5 6 4 6 6 7 7 8 8 8 8 9 10 9 8 10 11 12 12 13 13 12 11 9 9 9 10
1 1 2 3 3 4 4 4 4 4 4 4 4 6 5 4 6 6 5 7 7 6 7 8 8 8 9 9 9 9 9 10 11 11 12 13 14 14 13 10 10 11
1 2 2 2 2 3 3 4 4 4 4 5 4 4 6 7 6 6 6 6 9 8 8 9 9 9 9 9 9 9 10 11 11 11 11 11 11 13 13 14 13 13
2 3 4 4 4 4 4 4 4 4 4 4 4 5 6 6 8 9 9 7 8 9 9 8 9 10 9 9 8 8 9 10 11 12 13 13 13 13 13 13 14 14
3 3 3 4 5 5 6 7 7 7 7 7 6 7 7 7 8 9 10 11 10 9 10 9 9 10 9 8 9 10 10 11 12 12 13 13 13 14 14 14 14 14
4 4 5 5 7 7 7 7 8 9 9 10 11 10 10 10 10 10 9 10 12 12 11 10 10 9 11 19 18 13 12 11 11 11 12 13 13 13 14 13 13 13
5 5 5 6 6 7 7 8 10 9 10 11 11 11 12 12 12 13 12 11 11 12 14 13 11 11 20 22 23 25 17 13 12 12 11 12 12 13 14 13 12 11
6 6 7 7 7 7 7 7 8 9 10 10 11 12 12 11 12 12 13 12 12 12 13 13 13 18 24 24 26 26 23 16 12 11 11 11 12 13 12 13 13 13
6 6 6 6 7 7 7 8 9 10 10 10 12 10 10 12 12 13 13 12 12 13 14 14 13 20 24 26 26 27 27 23 13 13 13 12 13 13 14 13 14 13
6 5 6 6 6 8 8 9 9 10 9 9 10 11 10 12 12 13 12 12 12 12 13 14 14 18 25 27 27 28 28 25 15 15 13 14 14 14 13 14 14 14
7 5 6 6 6 7 8 8 8 9 10 9 9 10 11 12 12 12 12 10 10 10 12 13 13 23 25 28 27 28 27 24 16 16 16 16 17 17 15 14 13 14
4 5 6 6 7 7 7 9 9 9 10 10 10 10 9 9 11 9 11 12 11 11 12 15 14 22 25 26 26 25 28 17 14 16 16 17 17 18 18 18 17 17
4 4 6 6 6 8 8 8 9 9 8 7 10 10 11 10 10 10 9 11 13 11 12 15 14 18 24 25 26 27 22 14 15 14 16 16 17 17 17 17 17 18
4 4 6 6 6 7 9 9 8 8 8 7 9 11 12 10 9 10 9 8 12 13 11 14 15 17 24 26 26 26 23 16 13 13 15 15 17 17 15 16 18 26
4 4 5 6 7 8 8 9 9 9 8 8 9 9 12 10 9 10 10 8 8 12 18 19 15 17 23 25 27 26 21 14 13 12 15 16 15 16 15 15 16 17
4 4 5 6 8 9 8 8 8 9 9 9 10 9 11 10 9 9 11 10 9 11 12 12 14 14 16 26 25 25 25 17 12 12 12 13 14 14 14 11 14 16
Wind_Direction
57 53 51 48 44 40 35 32 24 31 27 22 27 9 11 354 0 7 5 5 5 4 0 359 357 356 354 351 351 349 351 336 326 317 321 320 305 298 297 293 287 273
54 52 49 46 38 29 26 30 24 28 20 19 13 7 4 4 359 6 5 1 0 0 357 357 357 354 352 352 347 350 340 341 329 327 333 322 306 304 291 285 284 287
59 57 57 56 53 39 33 21 40 29 31 359 354 4 358 359 354 357 0 360 355 352 354 353 352 353 349 350 348 343 341 337 333 330 331 314 306 303 289 284 284 278
54 59 57 52 45 35 22 27 23 23 13 9 9 352 358 345 352 351 351 354 349 342 342 344 345 343 346 344 348 343 336 328 316 325 325 316 310 305 297 292 282 284
40 32 30 30 19 19 17 18 9 5 3 350 347 357 356 357 356 352 353 346 347 338 339 338 334 335 337 337 342 337 335 330 326 334 328 315 307 309 299 305 298 294
31 37 30 27 27 22 20 11 355 359 351 355 347 344 350 350 350 348 344 343 341 333 323 325 329 329 332 328 326 325 321 326 318 328 324 315 310 309 301 297 295 291
42 35 19 1 15 9 10 347 342 344 344 330 335 339 345 344 344 340 337 336 334 333 333 329 326 319 314 313 318 313 311 304 307 313 313 305 303 302 300 295 289 287
23 31 18 23 14 356 348 335 329 321 318 336 333 309 334 325 325 321 322 322 324 321 322 324 325 326 328 327 313 299 291 286 297 300 296 293 298 296 295 288 275 278
33 24 355 27 7 332 328 313 307 304 310 324 312 311 313 310 306 310 310 313 312 309 310 312 312 313 315 319 318 320 316 310 292 277 279 284 286 279 279 285 289 280
1 283 342 325 330 288 296 290 295 292 294 299 289 294 299 297 299 295 296 297 297 297 299 300 304 304 305 304 305 307 308 306 310 311 303 287 275 275 275 274 272 278
270 265 253 283 278 283 281 287 287 288 288 288 293 292 286 292 293 284 286 283 284 288 290 290 289 291 293 294 293 295 297 300 301 303 303 301 298 291 284 276 271 266
248 251 255 262 269 278 283 285 288 292 291 286 283 289 290 284 287 294 283 287 283 277 276 280 283 283 283 285 289 293 293 292 291 290 294 295 297 296 294 288 281 277
248 274 277 285 288 284 284 288 289 290 293 298 296 290 296 302 297 294 294 287 292 293 288 286 285 281 281 285 289 289 289 289 289 288 284 283 281 283 286 288 285 281
333 322 334 334 328 327 324 321 317 315 310 298 299 303 302 303 308 308 304 300 293 293 290 290 289 289 287 286 286 286 287 284 284 287 287 284 283 281 279 276 276 277
333 334 337 340 330 335 339 335 335 331 329 327 321 316 311 308 307 306 307 306 302 293 295 294 291 290 293 295 295 292 285 282 283 281 280 282 281 281 279 279 277 276
348 349 349 346 348 347 344 341 338 338 335 332 327 323 320 317 314 312 308 306 308 306 303 301 296 294 295 301 302 299 298 295 290 287 285 282 282 281 278 273 273 272
359 351 348 354 351 347 346 345 340 338 333 328 324 322 321 320 318 316 313 311 310 309 307 304 300 298 305 308 308 306 305 301 295 289 284 280 276 276 278 277 272 270
357 353 358 354 356 349 342 339 333 330 327 321 318 319 317 316 313 309 309 312 310 309 305 302 302 305 311 313 310 309 307 304 298 290 286 281 279 277 276 278 279 278
4 3 354 351 347 342 336 335 330 323 321 321 315 313 313 309 308 310 305 310 311 309 307 304 303 310 314 312 309 309 308 306 298 293 288 285 283 280 279 280 281 281
11 3 349 341 339 336 333 327 326 317 316 314 310 310 309 305 305 304 305 309 311 310 305 304 302 312 312 309 308 306 306 303 296 291 285 281 279 277 276 277 276 279
6 352 340 332 331 328 325 320 316 314 312 311 309 307 308 306 307 308 306 308 308 307 303 300 303 310 310 308 308 307 305 304 299 298 296 293 290 288 286 282 277 276
355 338 329 326 323 322 317 312 310 306 307 310 305 301 297 297 296 297 302 306 305 304 301 297 299 308 308 306 305 306 307 305 301 296 292 288 287 288 286 286 286 283
347 331 321 317 318 314 307 303 303 303 301 305 299 297 297 297 293 294 299 299 299 297 295 295 296 305 305 304 305 304 304 297 293 290 288 288 286 287 286 284 281 281
333 322 313 312 307 301 298 295 295 293 292 298 294 298 296 293 293 293 290 288 291 292 292 293 295 302 304 303 302 300 299 295 293 290 287 288 289 288 289 289 289 291
312 311 303 300 296 290 291 294 296 294 294 294 286 287 286 290 290 289 288 282 278 284 294 296 295 297 299 299 298 298 297 289 287 282 284 286 289 290 287 287 288 289
298 294 290 286 286 288 286 286 291 295 293 293 289 284 286 287 285 284 286 286 284 286 289 290 290 290 292 295 297 296 296 294 286 285 285 283 279 281 284 274 279 282